Location: Kalberh�ni
(46.4610°N, 7.2453°E)
Time: 14:37:46
(UTC+00:00)

Lacrosse 4 Rocket - Pass Details

Date: 26 October 2021
Orbit: 537 x 619 km, 68.0° (Epoch: 04 December)

Event Time Altitude Azimuth Distance (km) Brightness Sun altitude
Rises 17:35:40 0° 326° (NW) 2,817 5.4 -12.7°
Reaches altitude 10° 17:37:53 10° 323° (NW) 1,926 4.5 -13.1°
Maximum altitude 17:42:11 65° 242° (WSW) 661 1.9 -13.8°
Drops below altitude 10° 17:46:33 10° 161° (SSE) 1,956 4.0 -14.6°
Sets 17:48:49 0° 158° (SSE) 2,864 4.8 -15.0°
